Regional Weather Roundup
Issued by NWS Charleston, WV

Home | Current Version | Previous Version | Graphics & Text | Print | Product List | Glossary On
Versions: 1 2 3 4 5 6 7 8 9 10 11 12 13 14 15 16 17 18 19 20 21 22 23 24 25 26 27 28 29 30 31 32 33 34 35 36 37 38 39 40 41 42 43 44 45 46 47 48 49 50
000
ASUS41 KRLX 210610
RWRRLX
West Virginia Regional Weather Roundup
National Weather Service Charleston WV
200 AM EDT SUN SEP 21 2014

Note: "fair" indicates few or no clouds below 12,000 feet with no
significant weather and/or obstructions to visibility.

WVZ003-210700-
Northern Panhandle of West Virginia

CITY           SKY/WX    TMP DP  RH WIND       PRES   REMARKS
WHEELING       PTCLDY    67  61  81 S9        29.91F
$$

WVZ009-210700-
Northwest West Virginia

CITY           SKY/WX    TMP DP  RH WIND       PRES   REMARKS
PARKERSBURG    PTCLDY    66  62  87 S8        29.96F
$$

WVZ006-210700-
Western West Virginia

CITY           SKY/WX    TMP DP  RH WIND       PRES   REMARKS
HUNTINGTON     CLEAR     64  63  96 S3        29.96S
$$

WVZ015-210700-
West Central West Virginia

CITY           SKY/WX    TMP DP  RH WIND       PRES   REMARKS
CHARLESTON     CLEAR     63  63 100 CALM      29.96F
$$

WVZ031-210700-
North Central West Virginia

CITY           SKY/WX    TMP DP  RH WIND       PRES   REMARKS
CLARKSBURG     CLEAR     64  59  83 CALM      29.96F
MORGANTOWN     CLEAR     67  59  75 SW3       29.97F
$$

WVZ035-042-045-210700-
South Central West Virginia

CITY           SKY/WX    TMP DP  RH WIND       PRES   REMARKS
BECKLEY        CLEAR     62  54  74 SE7       30.05F
BLUEFIELD      CLEAR     63  53  70 SE5       30.07F
LEWISBURG      FOG       56  54  94 CALM      30.05F VSB 1/4
$$

WVZ047-210700-
Northern Mountains of West Virginia

CITY           SKY/WX    TMP DP  RH WIND       PRES   REMARKS
ELKINS         PTCLDY    54  54 100 CALM      30.03F FOG
$$

WVZ052-210700-
Eastern Panhandle of West Virginia

CITY           SKY/WX    TMP DP  RH WIND       PRES   REMARKS
MARTINSBURG    CLEAR     60  55  83 CALM      30.00F
PETERSBURG     CLEAR     57  55  95 CALM      30.00F FOG
$$



USA.gov is the U.S. government's official web portal to all federal, state and local government web resources and services.